When you browse on this site, cookies collect data to enhance your experience and personalize the content and advertising you see.
Visit our Privacy Policy to learn more. By continuing to use the site, you agree to this use of cookies and data.
  • In Switzerland
  • List of Countries
  • For 7 days
  • Water Temperature
  • Weather Map
  • Weather Widgets
  • user-avatar
    Login

    Hourly Weather Pleskachivka

    Today, 24 August, Saturday

    Time Temperature Precipitation Wind Pressure Humidity
    00:00 +21°C° 0 mm 4 mps 750 mmHg 89%
    01:00 +20°C° 0 mm 4 mps 751 mmHg 90%
    02:00 +20°C° 0 mm 4 mps 751 mmHg 92%
    03:00 +19°C° 0 mm 4 mps 751 mmHg 94%
    04:00 +19°C° 0 mm 4 mps 751 mmHg 94%
    05:00 +19°C° 0 mm 4 mps 751 mmHg 95%
    06:00 +18°C° 0 mm 4 mps 751 mmHg 95%
    07:00 +19°C° 0 mm 4 mps 751 mmHg 89%
    08:00 +21°C° 0 mm 4 mps 751 mmHg 83%
    09:00 +22°C° 0 mm 5 mps 751 mmHg 77%
    10:00 +25°C° 0 mm 4 mps 751 mmHg 70%
    11:00 +27°C° 0 mm 4 mps 751 mmHg 63%
    12:00 +28°C° 0 mm 4 mps 751 mmHg 56%
    13:00 +29°C° 0 mm 4 mps 751 mmHg 53%
    14:00 +30°C° 0 mm 4 mps 751 mmHg 51%
    15:00 +30°C° 0 mm 4 mps 751 mmHg 48%
    16:00 +29°C° 0 mm 4 mps 750 mmHg 52%
    17:00 +29°C° 0 mm 4 mps 750 mmHg 55%
    18:00 +28°C° 0 mm 5 mps 750 mmHg 59%
    19:00 +26°C° 0 mm 4 mps 750 mmHg 65%
    20:00 +23°C° 0 mm 4 mps 750 mmHg 70%
    21:00 +22°C° 0 mm 4 mps 751 mmHg 76%
    22:00 +21°C° 0 mm 4 mps 750 mmHg 77%
    23:00 +21°C° 0 mm 3 mps 750 mmHg 79%

    Tomorrow, 25 August, Sunday

    Time Temperature Precipitation Wind Pressure Humidity
    00:00 +20°C° 0 mm 3 mps 750 mmHg 80%
    01:00 +20°C° 0 mm 3 mps 750 mmHg 78%
    02:00 +20°C° 0 mm 3 mps 751 mmHg 77%
    03:00 +20°C° 0 mm 3 mps 751 mmHg 75%
    04:00 +19°C° 0 mm 3 mps 751 mmHg 72%
    05:00 +19°C° 0 mm 4 mps 751 mmHg 69%
    06:00 +19°C° 0 mm 4 mps 751 mmHg 65%
    07:00 +20°C° 0 mm 4 mps 751 mmHg 61%
    08:00 +21°C° 0 mm 4 mps 751 mmHg 57%
    09:00 +22°C° 0 mm 4 mps 751 mmHg 52%
    10:00 +23°C° 0 mm 4 mps 751 mmHg 47%
    11:00 +26°C° 0 mm 4 mps 751 mmHg 43%
    12:00 +27°C° 0 mm 4 mps 751 mmHg 38%
    13:00 +28°C° 0 mm 5 mps 751 mmHg 37%
    14:00 +28°C° 0 mm 5 mps 751 mmHg 36%
    15:00 +28°C° 0 mm 5 mps 751 mmHg 35%
    16:00 +27°C° 0 mm 5 mps 751 mmHg 39%
    17:00 +27°C° 0 mm 4 mps 751 mmHg 42%
    18:00 +26°C° 0 mm 4 mps 751 mmHg 46%
    19:00 +25°C° 0 mm 4 mps 751 mmHg 53%
    20:00 +22°C° 0 mm 4 mps 751 mmHg 60%
    21:00 +20°C° 0 mm 4 mps 752 mmHg 68%
    22:00 +20°C° 0 mm 4 mps 752 mmHg 67%
    23:00 +19°C° 0 mm 4 mps 752 mmHg 67%

    Day after tomorrow, 26 August, Monday

    Time Temperature Precipitation Wind Pressure Humidity
    00:00 +18°C° 0 mm 4 mps 752 mmHg 66%
    01:00 +18°C° 0 mm 4 mps 752 mmHg 69%
    02:00 +17°C° 0 mm 4 mps 753 mmHg 71%
    03:00 +15°C° 0 mm 4 mps 753 mmHg 73%
    04:00 +14°C° 0 mm 4 mps 753 mmHg 76%
    05:00 +14°C° 0 mm 4 mps 753 mmHg 79%
    06:00 +13°C° 0 mm 4 mps 753 mmHg 83%
    07:00 +15°C° 0 mm 4 mps 753 mmHg 76%
    08:00 +18°C° 0 mm 4 mps 753 mmHg 70%
    09:00 +19°C° 0 mm 4 mps 754 mmHg 63%
    10:00 +21°C° 0 mm 4 mps 754 mmHg 56%
    11:00 +22°C° 0 mm 4 mps 754 mmHg 49%
    12:00 +25°C° 0 mm 4 mps 754 mmHg 41%
    13:00 +25°C° 0 mm 4 mps 753 mmHg 39%
    14:00 +26°C° 0 mm 4 mps 753 mmHg 36%
    15:00 +27°C° 0 mm 4 mps 753 mmHg 34%
    16:00 +26°C° 0 mm 4 mps 753 mmHg 36%
    17:00 +25°C° 0 mm 4 mps 752 mmHg 38%
    18:00 +25°C° 0 mm 3 mps 752 mmHg 41%
    19:00 +22°C° 0 mm 3 mps 752 mmHg 47%
    20:00 +20°C° 0 mm 3 mps 752 mmHg 53%
    21:00 +17°C° 0 mm 2 mps 752 mmHg 59%
    22:00 +17°C° 0 mm 2 mps 752 mmHg 61%
    23:00 +16°C° 0 mm 2 mps 752 mmHg 64%

    27 August, Tuesday

    Time Temperature Precipitation Wind Pressure Humidity
    00:00 +16°C° 0 mm 2 mps 752 mmHg 66%
    01:00 +15°C° 0 mm 2 mps 752 mmHg 68%
    02:00 +15°C° 0 mm 2 mps 752 mmHg 69%
    03:00 +14°C° 0 mm 2 mps 751 mmHg 71%
    04:00 +14°C° 0 mm 2 mps 751 mmHg 72%
    05:00 +14°C° 0 mm 2 mps 751 mmHg 73%
    06:00 +13°C° 0 mm 2 mps 751 mmHg 73%
    07:00 +16°C° 0 mm 2 mps 751 mmHg 65%
    08:00 +18°C° 0 mm 2 mps 751 mmHg 57%
    09:00 +21°C° 0 mm 1 mps 751 mmHg 49%
    10:00 +23°C° 0 mm 2 mps 751 mmHg 44%
    11:00 +24°C° 0 mm 2 mps 750 mmHg 40%
    12:00 +25°C° 0 mm 2 mps 750 mmHg 36%
    13:00 +26°C° 0 mm 2 mps 750 mmHg 34%
    14:00 +26°C° 0 mm 3 mps 749 mmHg 32%
    15:00 +27°C° 0 mm 3 mps 749 mmHg 31%
    16:00 +26°C° 0 mm 3 mps 749 mmHg 33%
    17:00 +26°C° 0 mm 3 mps 748 mmHg 36%
    18:00 +25°C° 0 mm 3 mps 748 mmHg 39%
    19:00 +22°C° 0 mm 3 mps 748 mmHg 45%
    20:00 +20°C° 0 mm 3 mps 748 mmHg 52%
    21:00 +18°C° 0 mm 3 mps 747 mmHg 59%
    22:00 +18°C° 0 mm 3 mps 747 mmHg 63%
    23:00 +17°C° 0 mm 3 mps 747 mmHg 68%

    28 August, Wednesday

    Time Temperature Precipitation Wind Pressure Humidity
    00:00 +17°C° 0 mm 3 mps 747 mmHg 73%
    01:00 +17°C° 0 mm 3 mps 747 mmHg 78%
    02:00 +15°C° 0 mm 4 mps 747 mmHg 83%
    03:00 +15°C° 0 mm 4 mps 747 mmHg 88%
    04:00 +14°C° 0 mm 4 mps 747 mmHg 88%
    05:00 +13°C° 0 mm 4 mps 748 mmHg 88%
    06:00 +12°C° 0 mm 4 mps 748 mmHg 88%
    07:00 +13°C° 0 mm 5 mps 749 mmHg 78%
    08:00 +14°C° 0 mm 5 mps 749 mmHg 69%
    09:00 +15°C° 0 mm 6 mps 750 mmHg 60%
    10:00 +16°C° 0 mm 6 mps 750 mmHg 52%
    11:00 +17°C° 0 mm 5 mps 750 mmHg 44%
    12:00 +19°C° 0 mm 5 mps 750 mmHg 37%
    13:00 +20°C° 0 mm 5 mps 750 mmHg 35%
    14:00 +20°C° 0 mm 5 mps 750 mmHg 33%
    15:00 +20°C° 0 mm 5 mps 750 mmHg 31%
    16:00 +20°C° 0 mm 5 mps 750 mmHg 33%
    17:00 +19°C° 0 mm 5 mps 750 mmHg 35%
    18:00 +17°C° 0 mm 5 mps 750 mmHg 38%
    19:00 +17°C° 0 mm 4 mps 750 mmHg 44%
    20:00 +14°C° 0 mm 4 mps 750 mmHg 50%
    21:00 +12°C° 0 mm 3 mps 750 mmHg 56%
    22:00 +11°C° 0 mm 3 mps 751 mmHg 58%
    23:00 +10°C° 0 mm 3 mps 751 mmHg 60%

    29 August, Thursday

    Time Temperature Precipitation Wind Pressure Humidity
    00:00 +10°C° 0 mm 3 mps 751 mmHg 62%
    01:00 +9°C° 0 mm 3 mps 751 mmHg 65%
    02:00 +8°C° 0 mm 3 mps 751 mmHg 68%
    03:00 +7°C° 0 mm 2 mps 751 mmHg 71%
    04:00 +7°C° 0 mm 2 mps 751 mmHg 73%
    05:00 +6°C° 0 mm 2 mps 752 mmHg 75%
    06:00 +6°C° 0 mm 2 mps 752 mmHg 77%
    07:00 +8°C° 0 mm 3 mps 752 mmHg 68%
    08:00 +10°C° 0 mm 3 mps 752 mmHg 59%
    09:00 +12°C° 0 mm 4 mps 752 mmHg 50%
    10:00 +14°C° 0 mm 4 mps 752 mmHg 45%
    11:00 +15°C° 0 mm 4 mps 752 mmHg 41%
    12:00 +17°C° 0 mm 4 mps 752 mmHg 37%
    13:00 +18°C° 0 mm 4 mps 751 mmHg 35%
    14:00 +19°C° 0 mm 4 mps 751 mmHg 33%
    15:00 +20°C° 0 mm 4 mps 751 mmHg 31%
    16:00 +19°C° 0 mm 4 mps 750 mmHg 33%
    17:00 +19°C° 0 mm 4 mps 750 mmHg 36%
    18:00 +18°C° 0 mm 4 mps 750 mmHg 38%
    19:00 +15°C° 0 mm 4 mps 750 mmHg 44%
    20:00 +13°C° 0 mm 3 mps 750 mmHg 50%
    21:00 +11°C° 0 mm 3 mps 750 mmHg 56%
    22:00 +10°C° 0 mm 3 mps 750 mmHg 59%
    23:00 +10°C° 0 mm 2 mps 750 mmHg 62%
    Show more